�N����,����,�~����,�C��,���x,�C��,����,���ϕ���,�ő�u�ԕ���,�ő厞����,���˗�,�I�_���x,�n�����x,�ő啗���N��,DTYPE
"17/12/02","00:10",0.0,2.4,96.8,1019.0,307.1,1.7,2.4,321.3,0.00,2.0,8.6,"00:08:00",1
"17/12/02","00:20",0.0,2.3,96.6,1018.5,307.5,1.7,3.9,323.2,0.00,1.9,8.5,"00:16:00",1
"17/12/02","00:30",0.0,2.1,96.8,1018.2,304.1,1.6,2.4,306.9,0.00,1.7,8.5,"00:22:08",1
"17/12/02","00:40",0.0,1.9,97.3,1018.5,305.8,1.7,2.6,312.7,0.00,1.6,8.5,"00:31:20",1
"17/12/02","00:50",0.0,2.2,98.3,1018.0,312.5,2.3,3.9,321.3,0.00,2.0,8.3,"00:43:44",1
"17/12/02","01:00",0.0,2.6,97.2,1018.2,309.3,2.1,3.1,319.3,0.00,2.2,8.4,"00:50:24",1
"17/12/02","01:10",0.0,2.6,98.0,1018.2,297.2,1.7,2.6,324.2,0.00,2.4,8.3,"01:00:32",1
"17/12/02","01:20",0.0,3.2,96.7,1018.7,322.5,1.5,2.9,315.2,0.00,2.8,8.4,"01:19:20",1
"17/12/02","01:30",0.0,3.4,97.0,1018.5,331.1,1.3,2.5,303.6,0.00,3.0,8.5,"01:20:40",1
"17/12/02","01:40",0.0,3.2,95.8,1019.0,347.6,1.3,3.9,320.0,0.00,2.6,8.2,"01:38:48",1
"17/12/02","01:50",0.0,3.1,96.5,1019.0,308.4,1.6,2.5,318.9,0.00,2.6,8.4,"01:43:20",1
"17/12/02","02:00",0.0,2.9,96.4,1019.0,275.2,1.1,1.8,255.0,0.00,2.4,8.5,"01:58:16",1
"17/12/02","02:10",0.0,2.9,97.0,1018.7,291.7,1.5,2.0,304.7,0.00,2.5,8.3,"02:00:02",1
"17/12/02","02:20",0.0,2.7,96.5,1019.2,310.7,1.6,2.8,320.5,0.00,2.2,8.4,"02:10:24",1
"17/12/02","02:30",0.0,2.5,97.0,1019.0,307.6,2.1,3.6,320.2,0.00,2.1,8.3,"02:28:40",1
"17/12/02","02:40",0.0,2.4,97.6,1019.2,301.4,2.0,2.9,320.7,0.00,2.1,8.4,"02:30:16",1
"17/12/02","02:50",0.0,2.6,97.9,1019.2,314.3,1.3,2.5,324.9,0.00,2.3,8.2,"02:40:16",1
"17/12/02","03:00",0.0,2.8,97.9,1019.0,300.0,1.5,2.2,302.6,0.00,2.5,8.3,"02:51:12",1
"17/12/02","03:10",0.0,2.9,98.0,1019.7,271.9,0.8,1.3,282.3,0.00,2.7,8.4,"03:01:44",1
"17/12/02","03:20",0.0,3.3,97.1,1019.4,268.3,0.8,1.7,297.3,0.00,2.9,8.0,"03:11:28",1
"17/12/02","03:30",0.0,3.4,97.8,1019.4,290.6,1.0,1.8,308.0,0.00,3.1,8.4,"03:29:52",1
"17/12/02","03:40",0.0,3.3,97.0,1019.2,301.9,1.1,1.9,311.8,0.00,2.9,8.2,"03:30:32",1
"17/12/02","03:50",0.0,3.1,97.7,1019.4,300.8,1.7,2.6,311.4,0.00,2.8,8.1,"03:43:04",1
"17/12/02","04:00",0.0,3.5,98.0,1019.2,309.9,2.0,3.2,334.6,0.00,3.3,8.1,"03:52:40",1
"17/12/02","04:10",0.0,4.0,96.5,1019.4,303.6,1.6,2.8,305.1,0.00,3.5,8.4,"04:07:36",1
"17/12/02","04:20",0.0,4.1,95.8,1019.2,284.6,1.3,1.9,298.0,0.00,3.5,8.1,"04:10:08",1
"17/12/02","04:30",0.0,4.2,94.8,1019.4,330.9,1.1,2.0,320.9,0.00,3.5,8.2,"04:25:44",1
"17/12/02","04:40",0.0,4.4,93.2,1019.4,325.0,2.0,4.2,333.1,0.00,3.4,8.2,"04:39:36",1
"17/12/02","04:50",0.0,4.4,91.4,1019.9,322.7,3.2,5.1,333.4,0.00,3.2,8.3,"04:41:52",1
"17/12/02","05:00",0.0,4.5,90.1,1019.9,321.7,3.4,5.6,328.0,0.00,3.1,8.5,"04:59:28",1
"17/12/02","05:10",0.0,4.5,89.1,1019.9,312.2,3.1,4.7,329.3,0.00,2.9,8.3,"05:02:56",1
"17/12/02","05:20",0.0,4.6,88.5,1020.4,298.0,2.3,4.0,331.9,0.00,2.9,8.4,"05:10:02",1
"17/12/02","05:30",0.0,4.6,86.9,1019.7,323.4,3.0,5.7,330.6,0.00,2.6,8.3,"05:20:08",1
"17/12/02","05:40",0.0,4.4,86.7,1019.7,311.0,2.2,3.6,329.4,0.00,2.4,8.2,"05:35:44",1
"17/12/02","05:50",0.0,4.1,87.3,1019.7,311.4,2.2,3.9,308.5,0.00,2.2,8.2,"05:42:08",1
"17/12/02","06:00",0.0,4.0,88.6,1020.1,298.1,2.0,3.6,309.8,0.00,2.3,8.2,"05:56:16",1
"17/12/02","06:10",0.0,3.7,89.0,1020.4,301.1,1.8,3.3,325.0,0.00,2.1,8.3,"06:03:04",1
"17/12/02","06:20",0.0,3.5,90.1,1020.4,290.7,1.6,2.5,305.2,0.00,2.1,8.0,"06:14:40",1
"17/12/02","06:30",0.0,3.1,90.7,1020.6,336.8,0.8,2.1,325.0,0.00,1.8,8.3,"06:20:16",1
"17/12/02","06:40",0.0,2.4,91.7,1020.4,306.4,1.7,3.3,322.2,0.00,1.2,8.1,"06:30:02",1
"17/12/02","06:50",0.0,2.4,94.2,1020.4,321.9,2.0,3.1,321.7,0.00,1.6,7.9,"06:40:16",1
"17/12/02","07:00",0.0,3.0,94.4,1020.1,322.5,3.2,4.9,325.2,0.00,2.2,7.9,"06:55:44",1
"17/12/02","07:10",0.0,3.1,93.6,1020.6,322.6,2.3,4.1,325.0,0.00,2.2,7.9,"07:04:16",1
"17/12/02","07:20",0.0,3.1,93.7,1020.1,313.1,2.2,4.2,327.0,0.00,2.2,8.1,"07:17:04",1
"17/12/02","07:30",0.0,3.1,94.2,1020.6,269.3,1.0,1.7,261.8,0.00,2.3,7.7,"07:25:28",1
"17/12/02","07:40",0.0,3.4,94.4,1020.6,312.1,1.5,2.2,317.0,0.00,2.6,8.0,"07:35:52",1
"17/12/02","07:50",0.0,3.6,93.4,1021.1,321.1,1.6,2.5,319.8,0.01,2.7,8.1,"07:44:40",1
"17/12/02","08:00",0.0,4.2,91.9,1021.1,324.9,1.3,2.1,337.5,0.02,3.0,7.7,"07:57:44",1
"17/12/02","08:10",0.0,4.5,91.1,1021.1,310.7,1.0,2.2,313.9,0.04,3.2,8.1,"08:05:20",1
"17/12/02","08:20",0.0,5.0,88.5,1021.1,264.5,0.7,1.3,257.8,0.06,3.3,8.1,"08:18:00",1
"17/12/02","08:30",0.0,5.4,85.8,1021.8,263.4,1.1,1.4,252.4,0.08,3.3,8.1,"08:20:02",1
"17/12/02","08:40",0.0,5.7,85.1,1022.0,263.3,1.1,1.7,270.5,0.10,3.4,8.2,"08:33:14",1
"17/12/02","08:50",0.0,6.0,84.1,1022.3,268.9,0.8,1.6,287.6,0.12,3.6,8.2,"08:49:36",1
"17/12/02","09:00",0.0,6.3,83.3,1022.7,254.0,0.8,1.6,137.5,0.15,3.7,8.4,"08:54:00",1
"17/12/02","09:10",0.0,6.5,83.3,1023.0,259.0,0.8,1.8,235.4,0.17,3.9,8.4,"09:00:08",1
"17/12/02","09:20",0.0,7.0,80.9,1022.5,225.3,0.8,2.0,224.7,0.19,4.0,8.6,"09:15:12",1
"17/12/02","09:30",0.0,7.1,80.3,1022.5,146.5,0.8,1.7,97.2,0.21,4.0,8.7,"09:25:44",1
"17/12/02","09:40",0.0,7.3,78.3,1022.7,106.5,1.1,2.5,144.7,0.24,3.8,8.7,"09:30:24",1
"17/12/02","09:50",0.0,7.6,77.7,1022.3,159.9,0.8,2.4,104.3,0.26,4.0,9.2,"09:43:52",1
"17/12/02","10:00",0.0,8.0,75.6,1022.7,228.3,0.8,2.4,226.6,0.28,4.0,9.2,"09:54:56",1
"17/12/02","10:10",0.0,8.8,75.3,1022.5,231.8,1.0,2.6,241.9,0.30,4.7,9.2,"10:03:20",1
"17/12/02","10:20",0.0,8.6,72.3,1022.5,177.4,0.8,2.4,167.3,0.32,3.9,9.3,"10:10:24",1
"17/12/02","10:30",0.0,9.3,72.9,1022.3,236.2,1.1,2.8,216.2,0.37,4.7,9.7,"10:26:40",1
"17/12/02","10:40",0.0,9.9,67.5,1022.5,245.6,0.8,1.8,244.9,0.45,4.2,9.8,"10:30:40",1
"17/12/02","10:50",0.0,9.6,67.9,1022.3,255.0,0.8,2.4,228.9,0.41,4.0,10.0,"10:46:32",1
"17/12/02","11:00",0.0,9.7,67.4,1021.8,274.1,1.0,1.6,235.9,0.22,4.0,9.9,"10:51:52",1
"17/12/02","11:10",0.0,9.6,67.7,1021.5,320.9,1.5,3.1,301.9,0.18,4.0,10.2,"11:08:16",1
"17/12/02","11:20",0.0,9.8,66.4,1021.5,311.7,1.2,3.1,320.3,0.20,3.9,10.3,"11:10:32",1
"17/12/02","11:30",0.0,10.1,64.2,1021.3,222.4,0.8,2.4,217.0,0.20,3.7,10.6,"11:26:16",1
"17/12/02","11:40",0.0,9.8,65.2,1021.1,257.6,1.7,2.9,240.9,0.12,3.6,10.4,"11:32:00",1
"17/12/02","11:50",0.0,10.1,65.1,1021.1,277.8,1.5,2.4,337.2,0.10,3.9,10.4,"11:40:32",1
"17/12/02","12:00",0.0,11.1,63.3,1020.8,287.3,0.8,2.1,299.9,0.36,4.4,10.6,"11:51:28",1
"17/12/02","12:10",0.0,10.3,63.1,1020.8,285.9,1.6,2.8,240.3,0.11,3.6,10.9,"12:02:00",1
"17/12/02","12:20",0.0,10.8,61.6,1020.4,250.0,1.7,3.7,246.6,0.22,3.8,10.8,"12:19:52",1
"17/12/02","12:30",0.0,11.5,59.3,1020.6,267.6,1.8,3.4,240.6,0.44,3.9,10.8,"12:23:44",1
"17/12/02","12:40",0.0,10.7,61.0,1020.6,291.3,2.0,4.7,338.4,0.22,3.5,11.1,"12:34:16",1
"17/12/02","12:50",0.0,11.0,61.5,1020.1,265.9,2.1,3.9,289.5,0.15,3.9,11.2,"12:46:48",1
"17/12/02","13:00",0.0,11.7,57.3,1020.1,282.6,2.1,4.2,240.1,0.39,3.6,11.0,"12:51:36",1
"17/12/02","13:10",0.0,11.9,55.8,1019.4,280.0,2.1,5.2,341.3,0.38,3.4,11.5,"13:09:12",1
"17/12/02","13:20",0.0,11.9,56.3,1019.4,282.7,2.2,5.1,313.6,0.39,3.5,11.7,"13:14:08",1
"17/12/02","13:30",0.0,11.3,55.9,1019.7,285.5,2.1,4.5,325.7,0.21,2.9,11.4,"13:21:04",1
"17/12/02","13:40",0.0,11.2,57.0,1019.7,276.3,1.8,3.6,324.9,0.05,3.0,11.5,"13:34:24",1
"17/12/02","13:50",0.0,11.7,58.1,1019.4,281.9,2.0,3.2,322.9,0.14,3.8,11.3,"13:48:12",1
"17/12/02","14:00",0.0,12.3,55.8,1019.4,274.0,2.1,3.6,319.9,0.31,3.8,11.6,"13:52:24",1
"17/12/02","14:10",0.0,11.9,53.9,1019.2,297.3,2.2,4.5,331.5,0.26,2.9,11.7,"14:08:08",1
"17/12/02","14:20",0.0,12.6,52.6,1019.9,280.4,2.1,3.9,331.6,0.29,3.2,11.5,"14:14:24",1
"17/12/02","14:30",0.0,11.5,55.2,1019.7,275.4,2.0,3.9,254.9,0.11,2.9,11.5,"14:25:44",1
"17/12/02","14:40",0.0,12.2,52.1,1019.4,286.2,1.8,3.9,305.9,0.22,2.7,11.5,"14:32:32",1
"17/12/02","14:50",0.0,12.1,51.8,1019.2,283.1,2.0,3.4,299.3,0.20,2.5,11.7,"14:48:24",1
"17/12/02","15:00",0.0,11.9,52.4,1019.4,285.9,2.3,5.1,333.1,0.14,2.5,11.7,"14:51:04",1
"17/12/02","15:10",0.0,11.8,53.7,1019.2,300.0,2.2,4.4,314.9,0.13,2.8,11.7,"15:03:04",1
"17/12/02","15:20",0.0,11.7,53.1,1019.0,300.0,1.8,3.9,311.7,0.11,2.5,11.6,"15:10:16",1
"17/12/02","15:30",0.0,11.6,54.3,1019.0,333.8,2.3,4.0,334.1,0.09,2.7,11.6,"15:26:00",1
"17/12/02","15:40",0.0,11.4,55.0,1019.2,332.6,2.0,4.9,338.0,0.07,2.7,11.5,"15:34:40",1
"17/12/02","15:50",0.0,11.4,54.2,1019.2,335.6,1.8,4.1,317.4,0.05,2.5,11.6,"15:40:56",1
"17/12/02","16:00",0.0,11.4,54.0,1019.2,323.5,2.1,4.0,336.8,0.03,2.5,11.5,"15:54:24",1
"17/12/02","16:10",0.0,10.7,56.4,1019.0,321.4,2.3,2.9,336.6,0.00,2.4,11.5,"16:00:56",1
"17/12/02","16:20",0.0,10.2,58.1,1019.0,332.9,1.8,3.2,339.4,0.00,2.4,11.2,"16:10:44",1
"17/12/02","16:30",0.0,9.8,60.0,1019.0,324.9,2.2,2.9,313.3,0.00,2.5,11.1,"16:24:08",1
"17/12/02","16:40",0.0,9.0,65.2,1019.2,304.1,2.0,3.3,322.1,0.00,2.9,11.1,"16:37:12",1
"17/12/02","16:50",0.0,8.5,68.8,1019.4,327.6,2.6,3.4,325.5,0.00,3.1,10.9,"16:45:36",1
"17/12/02","17:00",0.0,8.1,71.2,1019.4,322.7,2.7,4.5,333.7,0.00,3.2,10.9,"16:51:04",1
"17/12/02","17:10",0.0,7.5,72.6,1019.2,288.6,1.6,4.0,339.9,0.00,2.9,10.8,"17:02:40",1
"17/12/02","17:20",0.0,7.4,74.4,1019.2,309.8,2.5,4.2,340.7,0.00,3.2,10.8,"17:19:04",1
"17/12/02","17:30",0.0,7.2,74.7,1019.2,321.5,2.8,4.5,344.0,0.00,3.1,10.6,"17:21:20",1
"17/12/02","17:40",0.0,7.0,75.3,1019.4,312.6,2.5,3.7,309.6,0.00,3.0,10.5,"17:38:40",1
"17/12/02","17:50",0.0,6.8,76.0,1019.7,305.5,2.5,3.7,329.6,0.00,2.9,10.5,"17:40:32",1
"17/12/02","18:00",0.0,6.6,77.8,1019.7,300.3,2.3,2.9,314.5,0.00,3.0,10.3,"17:55:28",1
"17/12/02","18:10",0.0,6.5,78.8,1019.9,309.3,2.5,3.3,320.3,0.00,3.1,10.3,"18:07:20",1
"17/12/02","18:20",0.0,6.3,79.8,1020.1,296.0,2.0,2.8,328.7,0.00,3.1,10.2,"18:19:44",1
"17/12/02","18:30",0.0,6.2,81.1,1020.1,297.3,2.1,3.1,305.8,0.00,3.2,10.1,"18:29:28",1
"17/12/02","18:40",0.0,6.1,81.1,1019.7,291.9,2.1,3.4,311.1,0.00,3.1,10.2,"18:30:40",1
"17/12/02","18:50",0.0,5.9,81.9,1019.9,314.1,2.2,2.8,318.0,0.00,3.1,10.0,"18:48:48",1
"17/12/02","19:00",0.0,5.4,84.7,1019.9,304.8,2.1,2.6,310.4,0.00,3.1,10.0,"18:52:00",1
"17/12/02","19:10",0.0,5.2,86.5,1020.1,297.1,2.1,2.9,311.9,0.00,3.2,9.8,"19:05:12",1
"17/12/02","19:20",0.0,5.1,86.7,1019.7,296.5,1.8,3.3,328.8,0.00,3.1,9.8,"19:14:56",1
"17/12/02","19:30",0.0,5.1,87.1,1019.9,286.7,1.8,2.4,285.2,0.00,3.2,9.8,"19:25:36",1
"17/12/02","19:40",0.0,5.1,86.3,1020.4,285.1,2.0,2.5,296.9,0.00,3.0,9.5,"19:38:16",1
"17/12/02","19:50",0.0,4.9,86.6,1020.1,290.7,1.8,2.5,319.7,0.00,2.9,9.5,"19:43:52",1
"17/12/02","20:00",0.0,4.8,86.7,1020.1,282.3,1.7,2.6,257.0,0.00,2.8,9.4,"19:52:42",1
"17/12/02","20:10",0.0,4.8,87.7,1019.9,289.1,1.7,2.5,337.2,0.00,3.0,9.2,"20:05:02",1
"17/12/02","20:20",0.0,4.8,87.1,1019.9,291.0,2.0,2.8,311.2,0.00,2.9,9.3,"20:14:34",1
"17/12/02","20:30",0.0,4.6,88.2,1019.9,278.9,1.2,1.8,314.4,0.00,2.9,9.1,"20:20:16",1
"17/12/02","20:40",0.0,4.0,87.4,1019.9,311.7,2.0,2.7,321.5,0.00,2.1,9.2,"20:32:48",1
"17/12/02","20:50",0.0,3.2,90.4,1019.7,305.3,1.7,2.6,329.2,0.00,1.8,9.2,"20:41:12",1
"17/12/02","21:00",0.0,3.3,93.4,1019.4,284.5,1.6,2.1,270.7,0.00,2.4,9.2,"20:57:20",1
"17/12/02","21:10",0.0,3.8,92.4,1019.7,295.0,1.8,2.6,317.7,0.00,2.7,9.1,"21:07:44",1
"17/12/02","21:20",0.0,3.2,92.0,1019.4,313.3,2.1,3.2,320.4,0.00,2.1,8.8,"21:12:32",1
"17/12/02","21:30",0.0,3.1,93.9,1019.2,303.3,1.7,2.4,318.8,0.00,2.3,8.7,"21:20:56",1
"17/12/02","21:40",0.0,2.9,93.7,1019.0,302.4,2.0,3.2,323.0,0.00,2.0,8.8,"21:36:24",1
"17/12/02","21:50",0.0,2.8,94.4,1019.4,306.3,1.7,2.4,311.6,0.00,2.0,8.5,"21:49:12",1
"17/12/02","22:00",0.0,2.5,94.4,1019.2,304.8,2.1,2.9,318.1,0.00,1.7,8.9,"21:58:24",1
"17/12/02","22:10",0.0,2.3,95.3,1019.2,292.9,1.3,2.5,317.8,0.00,1.7,8.8,"22:00:24",1
"17/12/02","22:20",0.0,2.2,95.5,1019.4,303.2,2.2,3.4,316.8,0.00,1.6,8.7,"22:17:20",1
"17/12/02","22:30",0.0,2.6,97.4,1019.0,293.6,1.6,2.2,268.8,0.00,2.3,8.6,"22:28:40",1
"17/12/02","22:40",0.0,3.3,96.7,1018.7,287.2,1.7,2.1,297.6,0.00,2.9,8.5,"22:35:12",1
"17/12/02","22:50",0.0,3.0,95.4,1019.4,309.9,2.0,2.8,319.1,0.00,2.4,8.4,"22:42:00",1
"17/12/02","23:00",0.0,3.0,96.3,1019.0,289.0,1.6,2.8,309.0,0.00,2.5,8.4,"22:58:56",1
"17/12/02","23:10",0.0,3.1,96.1,1018.7,289.1,1.6,2.4,281.0,0.00,2.6,8.3,"23:06:40",1
"17/12/02","23:20",0.0,2.9,95.4,1018.5,294.5,1.5,2.6,318.3,0.00,2.3,8.4,"23:13:36",1
"17/12/02","23:30",0.0,2.4,95.1,1018.7,302.4,2.0,2.9,316.8,0.00,1.7,8.3,"23:27:44",1
"17/12/02","23:40",0.0,2.2,96.8,1018.2,304.5,2.2,2.8,312.0,0.00,1.8,8.3,"23:30:40",1
"17/12/02","23:50",0.0,2.3,97.3,1018.2,300.7,2.0,2.7,319.0,0.00,2.0,8.3,"23:41:12",1
"17/12/02","24:00",0.0,2.6,97.9,1018.5,292.5,1.7,2.2,307.1,0.00,2.3,8.0,"23:51:04",1
